| time (UTC) | temp C | wind direction | speed KPH | gust KPH | rain 1hr cm | rain 24hr cm | rain mn cm | humidity % | barometer mb |
| 20260906113107 | 10 | 116 | 0.0 | 1.6 | 0.00 | 0.15 | 0.05 | 98 | 1018.9 |
| 20260906111531 | 10 | 153 | 0.0 | 0.0 | 0.00 | 0.15 | 0.05 | 98 | 1018.9 |
| 20260906110033 | 10 | 157 | 0.0 | 3.2 | 0.03 | 0.15 | 0.05 | 98 | 1018.9 |
| 20260906104529 | 10 | 157 | 0.0 | 1.6 | 0.03 | 0.15 | 0.05 | 98 | 1019.1 |
| 20260906103029 | 10 | 173 | 0.0 | 0.0 | 0.03 | 0.15 | 0.05 | 98 | 1019.3 |
| 20260906101527 | 10 | 202 | 0.0 | 0.0 | 0.03 | 0.15 | 0.03 | 97 | 1019.4 |
| 20260906100028 | 11 | 173 | 1.6 | 4.8 | 0.00 | 0.13 | 0.03 | 97 | 1019.4 |
| 20260906093029 | 11 | 157 | 1.6 | 3.2 | 0.00 | 0.13 | 0.03 | 97 | 1019.5 |
| 20260906091532 | 10 | 138 | 3.2 | 6.4 | 0.00 | 0.13 | 0.03 | 97 | 1019.4 |
| 20260906090032 | 10 | 135 | 0.0 | 4.8 | 0.00 | 0.15 | 0.03 | 97 | 1019.5 |
| 20260906084530 | 10 | 174 | 0.0 | 3.2 | 0.00 | 0.15 | 0.03 | 97 | 1019.5 |
| 20260906080033 | 10 | 157 | 1.6 | 4.8 | 0.03 | 0.15 | 0.03 | 97 | 1019.3 |
| 20260906074528 | 10 | 135 | 0.0 | 4.8 | 0.03 | 0.18 | 0.03 | 97 | 1019.2 |
| 20260906071541 | 10 | 167 | 1.6 | 4.8 | 0.00 | 0.15 | 0.00 | 97 | 1019.4 |
| 20260906063027 | 10 | 152 | 1.6 | 6.4 | 0.00 | 0.18 | 0.15 | 96 | 1019.7 |
| 20260906061530 | 10 | 159 | 3.2 | 8.0 | 0.00 | 0.18 | 0.15 | 96 | 1019.7 |
| 20260906060106 | 10 | 174 | 1.6 | 6.4 | 0.00 | 0.18 | 0.15 | 96 | 1019.8 |
| 20260906054531 | 10 | 155 | 3.2 | 6.4 | 0.03 | 0.18 | 0.15 | 96 | 1019.8 |
| 20260906053103 | 10 | 139 | 4.8 | 8.0 | 0.03 | 0.18 | 0.15 | 96 | 1019.9 |
| 20260906051533 | 10 | 141 | 3.2 | 6.4 | 0.03 | 0.18 | 0.15 | 95 | 1020.0 |
| 20260906044533 | 10 | 157 | 1.6 | 4.8 | 0.00 | 0.15 | 0.13 | 95 | 1020.1 |
| 20260906043030 | 11 | 168 | 1.6 | 4.8 | 0.00 | 0.15 | 0.13 | 95 | 1020.2 |
| 20260906041531 | 11 | 175 | 1.6 | 6.4 | 0.00 | 0.15 | 0.13 | 94 | 1020.2 |
| 20260906034531 | 11 | 169 | 1.6 | 6.4 | 0.00 | 0.15 | 0.13 | 94 | 1020.0 |
| 20260906033030 | 12 | 150 | 3.2 | 8.0 | 0.00 | 0.15 | 0.13 | 94 | 1019.8 |
| 20260906031603 | 12 | 176 | 4.8 | 11.3 | 0.03 | 0.15 | 0.13 | 92 | 1019.7 |
| 20260906030030 | 12 | 165 | 3.2 | 6.4 | 0.03 | 0.15 | 0.13 | 90 | 1019.6 |
| 20260906024532 | 12 | 157 | 1.6 | 4.8 | 0.03 | 0.15 | 0.13 | 89 | 1019.6 |
| 20260906021532 | 13 | 165 | 1.6 | 3.2 | 0.00 | 0.13 | 0.10 | 86 | 1019.6 |
| 20260906020029 | 14 | 180 | 0.0 | 3.2 | 0.00 | 0.13 | 0.10 | 84 | 1019.7 |
| 20260906014529 | 15 | 181 | 0.0 | 3.2 | 0.03 | 0.13 | 0.10 | 81 | 1019.6 |
| 20260906013030 | 15 | 202 | 0.0 | 3.2 | 0.03 | 0.13 | 0.10 | 79 | 1019.6 |
| 20260906011528 | 15 | 225 | 3.2 | 6.4 | 0.03 | 0.13 | 0.10 | 80 | 1019.8 |
| 20260906003032 | 15 | 275 | 4.8 | 9.7 | 0.03 | 0.10 | 0.08 | 84 | 1020.1 |
| 20260906001530 | 15 | 260 | 4.8 | 9.7 | 0.03 | 0.10 | 0.08 | 87 | 1020.2 |
| 20260906000030 | 15 | 77 | 3.2 | 12.9 | 0.03 | 0.10 | 0.08 | 87 | 1020.1 |
| 20260905234529 | 15 | 94 | 6.4 | 17.7 | 0.03 | 0.10 | 0.05 | 85 | 1020.2 |
| 20260905233028 | 15 | 149 | 3.2 | 8.0 | 0.00 | 0.08 | 0.05 | 81 | 1020.4 |
| 20260905231607 | 16 | 180 | 1.6 | 6.4 | 0.00 | 0.08 | 0.05 | 75 | 1020.2 |
| 20260905230031 | 17 | 323 | 0.0 | 6.4 | 0.00 | 0.08 | 0.05 | 75 | 1020.2 |
| 20260905224530 | 16 | 248 | 3.2 | 12.9 | 0.00 | 0.08 | 0.05 | 79 | 1020.2 |
| 20260905223104 | 16 | 197 | 3.2 | 9.7 | 0.00 | 0.08 | 0.05 | 72 | 1020.2 |
| 20260905221531 | 17 | 211 | 4.8 | 9.7 | 0.00 | 0.08 | 0.05 | 66 | 1020.0 |
| 20260905220032 | 18 | 308 | 1.6 | 8.0 | 0.00 | 0.08 | 0.05 | 64 | 1019.9 |
| 20260905214530 | 18 | 344 | 4.8 | 11.3 | 0.00 | 0.08 | 0.05 | 65 | 1020.0 |
| 20260905213032 | 17 | 22 | 1.6 | 6.4 | 0.00 | 0.08 | 0.05 | 68 | 1020.1 |
| 20260905211528 | 17 | 196 | 1.6 | 6.4 | 0.00 | 0.08 | 0.05 | 70 | 1020.3 |
| 20260905210028 | 16 | 154 | 0.0 | 4.8 | 0.00 | 0.08 | 0.05 | 71 | 1020.4 |
| 20260905204531 | 16 | 172 | 0.0 | 1.6 | 0.00 | 0.08 | 0.05 | 72 | 1020.5 |
| 20260905203030 | 16 | 167 | 0.0 | 4.8 | 0.00 | 0.08 | 0.05 | 72 | 1020.5 |
| 20260905201603 | 16 | 267 | 0.0 | 4.8 | 0.00 | 0.08 | 0.05 | 74 | 1020.6 |
| 20260905200029 | 15 | 270 | 1.6 | 6.4 | 0.00 | 0.08 | 0.05 | 76 | 1020.7 |
| 20260905194613 | 15 | 321 | 1.6 | 6.4 | 0.00 | 0.08 | 0.05 | 74 | 1020.7 |
| 20260905193031 | 15 | 331 | 3.2 | 9.7 | 0.00 | 0.08 | 0.05 | 75 | 1020.7 |
| 20260905190033 | 15 | 300 | 1.6 | 6.4 | 0.00 | 0.08 | 0.05 | 78 | 1021.0 |
| 20260905184530 | 15 | 272 | 4.8 | 9.7 | 0.00 | 0.08 | 0.05 | 81 | 1021.0 |
| 20260905183034 | 14 | 294 | 3.2 | 9.7 | 0.00 | 0.08 | 0.05 | 81 | 1021.0 |
| 20260905181531 | 14 | 284 | 4.8 | 11.3 | 0.00 | 0.08 | 0.05 | 82 | 1021.1 |
| 20260905174530 | 13 | 294 | 0.0 | 4.8 | 0.00 | 0.08 | 0.05 | 92 | 1021.2 |
| 20260905171530 | 12 | 292 | 0.0 | 3.2 | 0.00 | 0.08 | 0.05 | 94 | 1021.1 |
| 20260905170030 | 12 | 271 | 0.0 | 3.2 | 0.00 | 0.08 | 0.05 | 96 | 1021.1 |
| 20260905164528 | 11 | 318 | 0.0 | 3.2 | 0.00 | 0.08 | 0.05 | 97 | 1021.1 |
| 20260905163030 | 11 | 320 | 1.6 | 4.8 | 0.00 | 0.08 | 0.05 | 98 | 1021.1 |
| 20260905161528 | 11 | 270 | 0.0 | 3.2 | 0.00 | 0.08 | 0.05 | 98 | 1021.0 |
| 20260905160031 | 11 | 270 | 0.0 | 0.0 | 0.00 | 0.08 | 0.05 | 98 | 1021.0 |
| 20260905154532 | 10 | 270 | 0.0 | 1.6 | 0.00 | 0.08 | 0.05 | 98 | 1020.9 |
| 20260905153030 | 10 | 209 | 0.0 | 4.8 | 0.00 | 0.08 | 0.05 | 98 | 1020.9 |
| 20260905151530 | 9 | 170 | 0.0 | 1.6 | 0.00 | 0.08 | 0.05 | 98 | 1020.8 |
| 20260905144604 | 8 | 172 | 0.0 | 3.2 | 0.00 | 0.08 | 0.05 | 98 | 1020.6 |
| 20260905143030 | 8 | 179 | 0.0 | 3.2 | 0.00 | 0.08 | 0.05 | 98 | 1020.6 |
| 20260905141532 | 8 | 161 | 1.6 | 4.8 | 0.00 | 0.08 | 0.05 | 98 | 1020.5 |
| 20260905140028 | 7 | 161 | 1.6 | 4.8 | 0.00 | 0.08 | 0.05 | 98 | 1020.4 |
| 20260905134530 | 7 | 144 | 3.2 | 6.4 | 0.00 | 0.08 | 0.05 | 98 | 1020.3 |
| 20260905133032 | 7 | 157 | 1.6 | 3.2 | 0.00 | 0.08 | 0.05 | 98 | 1020.1 |
| 20260905131530 | 7 | 160 | 3.2 | 4.8 | 0.00 | 0.08 | 0.05 | 97 | 1020.0 |
| 20260905130031 | 8 | 183 | 1.6 | 4.8 | 0.00 | 0.08 | 0.05 | 97 | 1020.1 |
| 20260905121608 | 8 | 195 | 0.0 | 4.8 | 0.00 | 0.13 | 0.05 | 97 | 1020.1 |
| 20260905120104 | 8 | 173 | 1.6 | 4.8 | 0.00 | 0.13 | 0.05 | 97 | 1020.2 |
| 20260905114528 | 8 | 138 | 3.2 | 6.4 | 0.00 | 0.13 | 0.05 | 97 | 1020.0 |